Temp
-1 -0 0 0 1 1 1 1 1 1 1 1 0 0 0 -0 0 0 1 1 2 3 5 5 6 7 8 10 9 11 10 9 10 9 8 11 11 13 14 15 11 9 9 12 12 13 13 20 20 19 20 21 22 22
-0 0 1 1 1 1 1 1 0 0 1 1 0 1 0 -0 1 0 1 1 2 3 3 5 5 6 6 8 10 11 11 8 7 8 11 12 11 11 14 11 14 10 10 11 11 14 17 19 19 20 21 21 21 22
0 1 1 1 1 1 1 1 1 1 0 1 1 1 0 0 0 0 1 1 2 2 3 4 5 5 6 7 10 10 11 9 10 8 13 13 12 12 11 12 13 13 13 11 11 14 14 18 19 20 21 21 21 21
0 1 1 1 1 1 1 1 1 1 0 0 0 0 0 0 1 1 1 1 2 4 3 3 4 5 6 7 7 7 8 9 9 10 12 11 10 14 11 14 11 14 11 13 13 13 13 16 18 19 19 19 19 19
0 1 1 1 1 1 1 1 1 0 0 0 0 0 1 1 0 1 1 1 4 5 5 4 5 6 6 7 7 6 6 7 6 6 9 11 12 13 14 14 13 16 15 13 13 16 15 16 17 17 18 17 19 18
1 1 1 1 1 0 1 1 0 1 0 1 0 0 0 0 1 1 1 1 3 5 4 5 6 6 6 6 7 6 5 7 7 9 9 12 13 13 11 12 14 15 16 16 15 16 16 16 16 16 16 17 16 17
1 0 1 1 1 0 0 0 0 1 1 0 0 0 0 0 1 2 2 3 4 3 4 6 6 5 6 6 6 7 7 7 8 8 9 11 12 12 10 10 14 14 14 14 14 15 15 15 14 14 14 15 16 16
1 1 1 1 1 1 0 1 1 1 1 0 -0 0 0 1 2 2 2 3 3 4 5 5 4 3 4 6 6 6 7 6 8 9 10 10 11 11 9 11 11 11 12 13 13 13 12 12 12 12 12 12 13 13
1 1 1 1 0 0 0 0 0 0 -0 -0 -0 -0 0 1 1 1 1 2 3 4 5 3 3 3 2 6 7 6 7 7 9 8 9 10 9 7 4 4 5 6 8 8 9 9 10 10 10 10 10 10 11 12
0 0 0 1 1 0 0 0 -0 -0 -0 -0 0 1 0 1 2 2 3 3 3 4 3 3 2 2 1 2 5 6 7 7 8 8 9 8 6 1 -0 0 1 1 3 6 7 7 7 8 9 9 8 8 9 9
-0 -0 -0 0 -0 -0 -0 -0 -0 -0 0 1 1 0 0 1 1 2 4 4 5 4 4 3 3 3 1 2 3 4 4 5 6 8 8 8 4 1 -1 -2 -1 -0 1 2 4 5 5 6 7 6 5 5 6 6
-1 -1 -0 -0 -0 -1 -1 -1 -0 1 1 1 1 -0 0 0 0 2 3 2 4 4 4 3 3 1 0 3 3 3 4 3 6 8 6 2 -0 -1 -2 -3 -4 -2 -1 0 1 2 3 3 3 3 2 2 2 2
-1 -1 -1 -1 -1 -1 -1 -0 0 0 1 1 2 1 0 0 2 3 3 3 3 1 1 3 2 2 3 3 3 4 4 4 2 3 2 -0 -2 -2 -3 -4 -5 -4 -3 -3 -2 -2 -1 -1 -1 -0 -1 -2 -2 -2
-1 -1 -1 -1 -1 -0 0 1 2 2 2 0 1 1 1 1 0 -1 -1 0 -1 -1 -1 0 3 2 1 1 1 4 2 2 4 3 -0 -2 -3 -4 -4 -5 -5 -6 -6 -5 -5 -5 -5 -4 -5 -4 -5 -5 -4 -5
-1 -1 -1 -1 -0 0 0 1 1 2 -2 -2 -0 -1 -1 -2 -2 -3 -3 -1 -2 -2 -1 1 1 1 2 2 2 3 4 1 0 -1 -2 -4 -5 -5 -5 -6 -6 -6 -7 -7 -7 -7 -7 -6 -6 -7 -6 -6 -6 -6
-1 -1 -1 -1 -1 -0 0 1 2 -1 -3 -4 -5 -3 -4 -2 -2 -3 -3 -2 -3 -2 -0 0 1 2 2 1 1 0 1 -1 -3 -4 -5 -5 -6 -6 -6 -7 -7 -7 -7 -7 -7 -7 -7 -7 -7 -7 -7 -7 -7 -7
-0 0 -0 -0 -0 -0 0 -0 -1 -5 -5 -4 -4 -6 -5 -4 -4 -3 -4 -4 -3 -2 1 1 1 0 2 1 -2 -2 -3 -4 -5 -6 -7 -7 -7 -7 -7 -7 -8 -8 -8 -8 -8 -8 -8 -8 -7 -7 -8 -9 -8 -8
1 0 -0 -0 1 -0 -2 -3 -5 -5 -6 -6 -5 -6 -6 -6 -5 -4 -5 -4 -2 -1 -1 -2 -2 -3 -2 -2 -3 -3 -6 -7 -8 -9 -8 -8 -8 -8 -8 -8 -8 -8 -8 -8 -9 -9 -9 -9 -9 -9 -10 -10 -10 -10
1 -1 -0 -1 -0 -1 -2 -3 -4 -4 -6 -6 -6 -6 -6 -6 -6 -6 -5 -5 -5 -4 -4 -5 -5 -5 -5 -5 -5 -5 -6 -7 -8 -9 -9 -9 -9 -9 -9 -9 -9 -10 -10 -10 -10 -10 -10 -10 -10 -10 -11 -10 -11 -11
-1 -1 -1 -1 -1 -1 -2 -3 -3 -4 -4 -5 -5 -6 -7 -7 -7 -8 -7 -6 -6 -7 -7 -7 -8 -8 -8 -9 -8 -7 -7 -8 -9 -9 -10 -10 -10 -10 -10 -10 -10 -11 -11 -11 -11 -12 -12 -12 -12 -12 -12 -13 -13 -12
-1 -1 -2 -0 -1 -2 -2 -2 -2 -2 -3 -3 -4 -4 -5 -6 -7 -7 -6 -7 -7 -7 -8 -9 -10 -10 -10 -10 -9 -9 -9 -9 -9 -9 -10 -11 -11 -11 -12 -12 -12 -12 -13 -13 -14 -14 -14 -14 -14 -14 -14 -14 -14 -15
-1 -1 -1 -2 -2 -2 -2 -1 -0 -1 -1 -2 -2 -3 -3 -4 -5 -6 -8 -8 -9 -9 -9 -10 -10 -10 -10 -10 -10 -11 -11 -11 -11 -11 -11 -12 -12 -12 -12 -12 -13 -14 -14 -14 -15 -15 -15 -15 -15 -16 -16 -15 -16 -16
-0 -1 -1 -1 -1 -1 -2 -1 -2 -0 -0 -0 -1 -2 -3 -5 -5 -5 -7 -9 -9 -10 -10 -11 -11 -11 -11 -11 -11 -11 -11 -11 -11 -12 -12 -12 -13 -13 -14 -14 -14 -14 -14 -15 -15 -16 -16 -17 -17 -17 -17 -17 -17 -17
-0 -1 -2 -3 -2 -3 -3 -2 -1 -1 -1 -1 -2 -4 -4 -4 -4 -6 -8 -9 -10 -10 -10 -9 -10 -11 -11 -12 -12 -12 -11 -12 -12 -12 -12 -13 -14 -15 -15 -16 -16 -16 -16 -16 -16 -17 -17 -18 -18 -18 -19 -19 -19 -19
-2 -5 -3 -2 -1 -1 -1 -2 -1 -1 -2 -2 -3 -4 -4 -4 -4 -5 -7 -9 -10 -10 -11 -10 -10 -11 -11 -12 -12 -13 -13 -13 -13 -14 -14 -13 -13 -13 -14 -16 -16 -18 -18 -18 -18 -18 -19 -19 -19 -19 -19 -20 -20 -20
-4 -6 -3 -2 -2 -1 -1 -2 -2 -2 -2 -4 -4 -5 -4 -4 -5 -7 -8 -10 -11 -12 -12 -11 -11 -12 -13 -13 -14 -14 -15 -14 -14 -15 -15 -15 -15 -16 -16 -16 -17 -19 -19 -19 -19 -19 -19 -20 -20 -20 -20 -20 -21 -21
-3 -4 -5 -4 -3 -3 -2 -3 -3 -3 -4 -4 -4 -4 -4 -5 -7 -9 -11 -12 -13 -13 -13 -12 -12 -13 -14 -14 -15 -16 -14 -14 -14 -15 -15 -15 -15 -15 -16 -17 -17 -17 -19 -18 -20 -20 -20 -20 -21 -21 -21 -21 -21 -21
-5 -5 -5 -6 -6 -5 -5 -5 -5 -5 -6 -6 -5 -7 -7 -7 -9 -11 -13 -14 -14 -14 -15 -15 -14 -15 -15 -15 -15 -16 -16 -16 -15 -16 -17 -17 -17 -17 -17 -18 -18 -18 -18 -18 -19 -18 -19 -19 -21 -21 -21 -20 -21 -22
-5 -7 -8 -9 -8 -9 -9 -7 -8 -10 -11 -8 -7 -9 -11 -13 -13 -14 -14 -14 -14 -15 -15 -16 -16 -16 -16 -15 -15 -14 -14 -15 -16 -17 -17 -17 -17 -18 -18 -19 -19 -20 -18 -20 -21 -20 -19 -19 -19 -19 -20 -20 -22 -22
-6 -6 -8 -9 -9 -10 -11 -11 -12 -12 -12 -13 -14 -14 -15 -15 -15 -15 -15 -14 -14 -15 -15 -16 -16 -15 -16 -16 -17 -16 -15 -15 -16 -16 -18 -18 -19 -19 -20 -21 -19 -20 -19 -20 -20 -20 -21 -20 -20 -21 -22 -22 -22 -23
-6 -6 -7 -9 -10 -12 -12 -13 -12 -12 -12 -12 -12 -13 -15 -16 -16 -16 -16 -16 -16 -16 -16 -16 -17 -17 -17 -17 -17 -17 -18 -16 -17 -17 -17 -18 -18 -21 -20 -19 -20 -19 -19 -21 -20 -21 -22 -21 -22 -22 -22 -23 -23 -23
-6 -7 -8 -9 -11 -12 -11 -9 -9 -10 -10 -11 -12 -14 -13 -13 -13 -16 -17 -17 -16 -15 -16 -16 -16 -17 -16 -16 -16 -16 -17 -17 -17 -17 -17 -18 -18 -18 -18 -19 -19 -21 -21 -20 -20 -22 -23 -23 -23 -23 -23 -23 -23 -23
-7 -8 -8 -9 -9 -8 -10 -8 -8 -9 -9 -10 -12 -12 -13 -12 -13 -16 -15 -16 -16 -16 -17 -17 -16 -16 -16 -16 -17 -17 -17 -17 -17 -17 -18 -18 -18 -18 -18 -19 -19 -19 -19 -19 -20 -21 -23 -23 -23 -23 -22 -22 -23 -24
Height
1266 1260 1254 1248 1240 1232 1226 1225 1224 1227 1227 1234 1245 1257 1272 1287 1303 1315 1323 1331 1339 1345 1346 1352 1355 1360 1365 1368 1369 1371 1381 1383 1383 1388 1403 1395 1388 1385 1385 1384 1402 1414 1419 1404 1403 1405 1403 1373 1379 1385 1380 1376 1379 1381
1258 1252 1246 1241 1234 1225 1218 1215 1214 1215 1214 1231 1244 1256 1269 1283 1298 1312 1322 1328 1338 1345 1341 1347 1351 1356 1362 1365 1371 1366 1368 1381 1386 1386 1382 1385 1383 1381 1379 1393 1387 1407 1406 1404 1404 1387 1375 1372 1376 1374 1373 1375 1377 1377
1251 1247 1243 1238 1231 1225 1218 1211 1204 1210 1220 1233 1244 1257 1269 1281 1296 1308 1317 1327 1337 1344 1346 1347 1349 1357 1359 1363 1362 1363 1366 1373 1377 1388 1378 1377 1379 1378 1384 1382 1382 1387 1397 1399 1403 1381 1380 1374 1378 1372 1373 1373 1374 1375
1249 1246 1243 1238 1232 1228 1223 1219 1216 1220 1227 1237 1248 1260 1272 1286 1299 1309 1316 1324 1334 1336 1346 1349 1350 1354 1357 1358 1357 1361 1365 1369 1375 1379 1377 1378 1381 1372 1378 1376 1379 1377 1394 1388 1386 1383 1379 1373 1371 1372 1370 1372 1372 1373
1249 1247 1244 1240 1236 1234 1233 1231 1232 1234 1238 1246 1257 1269 1279 1290 1304 1312 1320 1324 1331 1338 1342 1347 1350 1351 1352 1355 1360 1364 1365 1370 1375 1378 1375 1374 1372 1373 1369 1371 1372 1372 1375 1379 1378 1375 1379 1377 1373 1370 1370 1370 1371 1371
1251 1250 1248 1245 1243 1242 1242 1243 1245 1248 1253 1261 1269 1277 1286 1296 1305 1311 1320 1328 1334 1336 1344 1347 1347 1348 1350 1353 1359 1364 1369 1370 1373 1370 1377 1370 1369 1372 1372 1372 1370 1368 1368 1370 1371 1373 1373 1374 1371 1371 1370 1371 1372 1368
1253 1253 1252 1251 1251 1251 1251 1253 1256 1259 1264 1271 1278 1286 1296 1304 1312 1316 1322 1324 1334 1342 1347 1345 1346 1349 1351 1353 1358 1363 1365 1366 1368 1369 1368 1367 1369 1370 1373 1374 1368 1367 1368 1368 1369 1369 1367 1371 1371 1370 1370 1369 1371 1369
1260 1258 1257 1257 1260 1261 1261 1263 1265 1268 1272 1278 1287 1295 1302 1309 1315 1321 1326 1331 1339 1343 1345 1345 1349 1351 1350 1351 1354 1357 1361 1366 1366 1366 1363 1364 1365 1369 1372 1372 1369 1369 1364 1364 1366 1366 1366 1366 1368 1369 1368 1366 1365 1367
1268 1266 1266 1266 1268 1270 1272 1276 1278 1280 1286 1293 1299 1305 1312 1319 1324 1329 1332 1336 1339 1345 1345 1349 1347 1349 1350 1349 1350 1357 1362 1365 1364 1364 1365 1365 1364 1374 1384 1381 1376 1375 1374 1371 1368 1368 1367 1367 1368 1367 1366 1365 1366 1364
1277 1276 1276 1275 1276 1279 1283 1286 1290 1295 1299 1304 1310 1315 1321 1326 1329 1332 1339 1341 1342 1344 1346 1346 1348 1351 1353 1349 1349 1354 1359 1363 1362 1362 1363 1366 1374 1387 1388 1386 1382 1378 1375 1373 1370 1367 1367 1367 1367 1367 1368 1368 1369 1370
1287 1287 1287 1289 1291 1293 1295 1299 1303 1307 1310 1313 1316 1320 1326 1330 1333 1336 1337 1339 1340 1342 1342 1342 1346 1348 1351 1350 1349 1353 1359 1361 1359 1354 1361 1361 1376 1390 1389 1386 1382 1378 1377 1375 1372 1370 1369 1368 1366 1367 1369 1367 1368 1368
1295 1296 1298 1299 1301 1305 1308 1311 1312 1313 1314 1315 1317 1326 1331 1333 1335 1337 1337 1340 1338 1336 1336 1339 1341 1341 1344 1342 1348 1353 1351 1353 1350 1350 1359 1380 1396 1395 1392 1388 1384 1380 1377 1374 1372 1370 1370 1369 1369 1369 1370 1370 1372 1372
1302 1304 1306 1309 1311 1313 1315 1317 1318 1318 1319 1321 1325 1330 1333 1335 1333 1331 1335 1335 1335 1338 1338 1337 1336 1332 1333 1332 1339 1343 1349 1349 1354 1359 1380 1398 1400 1397 1394 1390 1387 1382 1378 1376 1374 1373 1373 1373 1373 1372 1374 1377 1377 1379
1310 1313 1315 1317 1318 1319 1320 1321 1322 1322 1322 1326 1329 1333 1336 1339 1345 1349 1348 1345 1345 1344 1340 1336 1333 1331 1331 1332 1337 1341 1349 1351 1355 1366 1395 1406 1405 1401 1397 1393 1389 1386 1383 1381 1380 1380 1378 1376 1377 1379 1381 1384 1385 1387
1318 1319 1322 1324 1324 1325 1326 1324 1323 1323 1327 1336 1340 1346 1352 1357 1355 1353 1351 1349 1346 1345 1341 1338 1336 1337 1338 1341 1348 1348 1351 1371 1383 1397 1409 1411 1409 1406 1403 1400 1398 1396 1394 1392 1392 1391 1390 1390 1390 1390 1392 1394 1393 1398
1324 1326 1329 1331 1330 1330 1329 1327 1324 1326 1339 1349 1361 1362 1364 1360 1360 1358 1354 1351 1348 1342 1342 1343 1343 1345 1350 1357 1363 1372 1374 1393 1407 1413 1417 1416 1414 1412 1409 1408 1406 1405 1403 1402 1401 1402 1402 1402 1402 1403 1404 1406 1408 1410
1328 1330 1333 1335 1333 1331 1330 1328 1330 1342 1354 1362 1370 1372 1371 1370 1365 1361 1358 1355 1351 1350 1350 1352 1356 1362 1362 1370 1388 1396 1406 1414 1417 1419 1420 1419 1419 1418 1416 1414 1413 1412 1412 1412 1412 1412 1413 1414 1414 1414 1416 1420 1420 1421
1333 1334 1336 1336 1335 1334 1334 1336 1347 1360 1370 1375 1373 1373 1368 1369 1368 1365 1363 1357 1354 1353 1357 1366 1374 1381 1387 1391 1403 1410 1416 1419 1421 1423 1423 1423 1424 1423 1422 1421 1421 1421 1420 1420 1420 1421 1422 1422 1423 1425 1426 1428 1428 1429
1336 1337 1338 1338 1338 1340 1345 1353 1358 1370 1380 1381 1382 1379 1375 1372 1366 1362 1360 1360 1359 1360 1367 1382 1394 1404 1411 1415 1416 1418 1420 1422 1425 1427 1428 1429 1429 1429 1428 1427 1427 1427 1427 1428 1427 1427 1428 1429 1430 1432 1432 1433 1433 1435
1338 1340 1341 1341 1342 1345 1353 1361 1365 1371 1378 1383 1383 1385 1384 1383 1383 1377 1372 1371 1369 1373 1390 1408 1420 1424 1423 1424 1423 1422 1424 1427 1429 1431 1433 1435 1434 1433 1433 1433 1434 1434 1434 1433 1433 1435 1436 1436 1437 1437 1437 1436 1437 1438
1343 1344 1346 1346 1345 1350 1359 1365 1369 1374 1378 1381 1384 1385 1388 1389 1385 1384 1383 1386 1382 1401 1417 1428 1430 1430 1429 1429 1429 1429 1430 1433 1434 1436 1439 1439 1440 1440 1439 1440 1440 1439 1439 1440 1440 1441 1441 1442 1443 1443 1442 1440 1440 1440
1346 1348 1349 1350 1353 1360 1366 1370 1373 1377 1381 1386 1387 1389 1393 1397 1399 1402 1406 1404 1419 1430 1432 1434 1435 1436 1435 1436 1437 1437 1439 1439 1440 1442 1443 1444 1445 1445 1446 1447 1446 1445 1445 1446 1445 1445 1446 1445 1446 1445 1444 1444 1443 1441
1350 1351 1352 1355 1359 1367 1379 1377 1379 1380 1383 1387 1392 1395 1401 1406 1410 1413 1421 1432 1438 1441 1441 1441 1441 1442 1442 1443 1443 1444 1445 1446 1447 1448 1449 1449 1450 1450 1450 1450 1451 1451 1451 1451 1451 1450 1449 1448 1447 1446 1445 1443 1443 1443
1353 1354 1358 1361 1367 1377 1381 1383 1384 1387 1390 1393 1397 1404 1410 1412 1416 1424 1436 1445 1448 1447 1447 1447 1448 1448 1449 1449 1450 1451 1453 1453 1453 1454 1455 1455 1454 1454 1453 1453 1452 1453 1454 1454 1453 1451 1451 1449 1448 1447 1445 1444 1443 1443
1358 1368 1369 1372 1375 1378 1383 1388 1391 1393 1397 1400 1405 1410 1416 1416 1420 1430 1441 1450 1452 1452 1452 1452 1453 1453 1454 1455 1456 1457 1457 1457 1457 1456 1457 1457 1459 1459 1458 1455 1455 1454 1454 1454 1453 1452 1451 1450 1448 1447 1446 1444 1442 1442
1368 1377 1377 1379 1382 1382 1387 1392 1396 1400 1403 1408 1415 1419 1420 1421 1428 1438 1447 1453 1455 1456 1456 1457 1457 1457 1458 1459 1459 1459 1459 1461 1460 1458 1458 1458 1458 1459 1459 1458 1457 1455 1453 1452 1452 1452 1451 1449 1448 1447 1446 1446 1444 1442
1376 1383 1386 1386 1387 1388 1394 1400 1403 1406 1410 1415 1419 1422 1423 1428 1439 1451 1455 1456 1457 1458 1459 1459 1460 1460 1461 1462 1461 1461 1461 1461 1460 1460 1460 1459 1458 1457 1456 1456 1455 1454 1453 1452 1451 1451 1451 1450 1449 1448 1447 1445 1443 1441
1387 1390 1391 1395 1395 1397 1400 1408 1413 1418 1423 1426 1426 1431 1434 1438 1447 1453 1456 1457 1458 1459 1459 1459 1460 1461 1462 1463 1464 1464 1464 1462 1461 1461 1461 1460 1459 1458 1457 1456 1455 1454 1453 1452 1451 1450 1449 1448 1447 1446 1445 1443 1442 1440
1394 1397 1399 1402 1404 1411 1419 1422 1427 1432 1433 1430 1431 1438 1447 1451 1453 1455 1457 1458 1460 1460 1461 1462 1462 1463 1463 1463 1463 1463 1463 1463 1463 1463 1463 1463 1463 1460 1457 1456 1455 1454 1453 1452 1451 1450 1448 1447 1446 1445 1443 1442 1441 1440
1401 1401 1405 1412 1418 1428 1434 1433 1436 1437 1436 1435 1439 1445 1450 1454 1456 1458 1459 1460 1462 1462 1463 1464 1465 1466 1466 1467 1465 1464 1463 1463 1462 1462 1462 1462 1461 1459 1457 1456 1454 1453 1452 1451 1450 1449 1448 1446 1445 1445 1444 1442 1440 1437
1403 1405 1412 1422 1432 1439 1439 1439 1440 1441 1441 1442 1445 1446 1449 1454 1457 1458 1459 1460 1461 1462 1463 1464 1465 1466 1466 1466 1466 1466 1464 1462 1462 1461 1460 1460 1459 1458 1456 1454 1453 1452 1450 1449 1448 1447 1446 1445 1443 1442 1441 1439 1437 1435
1409 1412 1418 1427 1437 1440 1439 1441 1443 1444 1446 1447 1449 1450 1452 1454 1457 1460 1460 1462 1463 1464 1465 1466 1466 1464 1464 1464 1463 1463 1463 1462 1461 1460 1459 1458 1458 1456 1455 1454 1452 1451 1449 1448 1446 1445 1444 1443 1441 1439 1437 1436 1433 1430
1417 1419 1422 1427 1433 1436 1439 1440 1442 1445 1447 1449 1452 1452 1453 1454 1457 1459 1459 1460 1463 1464 1464 1464 1464 1463 1463 1463 1462 1462 1461 1460 1460 1459 1458 1457 1456 1455 1453 1452 1450 1449 1448 1446 1444 1443 1441 1440 1438 1435 1433 1430 1428 1425
Wind_Speed
32 30 25 28 28 30 31 29 27 27 26 37 41 43 44 50 47 49 45 46 39 5 20 18 19 20 25 31 14 18 10 9 8 11 12 8 6 8 11 10 8 7 3 4 7 8 12 7 13 17 10 12 9 14
29 25 19 20 20 21 11 16 22 25 27 36 35 37 40 49 47 43 25 45 37 20 2 11 14 20 22 26 26 23 19 16 7 5 6 6 3 4 6 4 5 3 8 3 5 2 5 17 22 20 14 11 14 11
23 11 13 15 13 8 8 11 8 22 30 34 35 36 38 49 42 40 32 44 28 10 4 9 11 26 13 19 30 17 25 14 12 28 6 3 3 3 3 7 5 12 10 6 2 9 16 4 17 27 20 17 20 13
9 7 9 11 9 7 9 13 22 26 32 34 40 37 44 39 38 39 36 46 23 13 3 5 12 16 15 16 12 15 13 18 13 19 7 3 3 8 5 5 6 7 15 16 11 12 18 39 22 17 15 19 11 8
5 6 8 11 11 14 14 19 26 27 30 36 40 39 38 37 37 32 39 24 16 12 3 3 7 11 6 15 11 7 9 11 12 3 4 5 5 3 2 5 6 10 12 7 6 7 4 15 20 19 14 19 21 12
6 10 12 14 17 16 21 23 25 28 31 39 37 37 42 51 30 37 10 18 20 20 4 5 7 7 10 7 17 12 14 25 16 9 10 8 10 6 3 5 10 16 16 16 7 14 11 17 20 16 13 13 24 13
12 10 11 15 18 22 22 25 23 27 31 36 37 42 42 37 24 10 6 22 24 20 4 2 3 5 10 11 15 16 14 8 6 3 4 6 12 12 3 6 9 15 13 13 13 20 16 18 11 13 13 10 13 13
19 21 18 20 21 25 23 22 23 28 37 52 52 41 33 26 22 15 17 23 18 8 2 1 2 1 9 8 7 12 7 6 7 5 3 5 6 2 2 10 11 10 17 20 14 8 5 10 16 14 13 7 5 6
21 24 22 23 25 26 25 25 36 50 44 44 36 30 25 16 6 9 18 19 11 4 3 2 1 2 5 9 10 9 11 4 4 3 2 2 3 2 9 17 21 21 15 17 14 11 9 8 9 8 7 7 5 6
22 23 27 28 30 35 33 31 40 41 42 38 30 9 6 8 22 25 8 3 3 3 3 2 3 2 3 3 2 5 6 3 4 5 5 4 3 11 21 18 17 19 20 16 14 15 19 15 11 6 4 3 3 7
20 25 32 34 33 32 33 37 39 36 29 10 4 7 20 21 6 2 3 3 4 2 6 4 9 5 4 3 2 4 3 5 4 5 7 5 4 12 22 20 17 16 14 13 12 11 11 10 6 3 6 7 9 14
25 25 25 30 35 38 30 17 12 12 6 9 16 17 14 2 3 2 3 1 3 2 5 3 7 14 9 16 4 4 3 1 5 6 4 3 5 19 19 18 17 14 11 9 8 7 8 9 9 10 12 11 13 16
26 28 30 33 34 25 17 15 12 20 16 11 5 4 2 2 2 3 4 2 1 5 7 4 3 4 5 5 2 3 3 3 1 3 4 5 18 18 16 15 16 16 13 12 14 14 13 16 15 14 17 15 17 18
25 26 27 27 22 15 14 13 10 8 6 6 4 4 5 5 5 4 4 4 5 6 13 12 2 1 3 3 2 4 1 1 3 4 5 7 17 16 16 16 19 22 21 22 23 22 23 24 25 24 23 21 23 25
23 22 21 19 15 12 9 11 7 8 7 7 7 5 6 6 9 10 11 4 10 10 10 3 5 6 5 4 4 3 4 6 7 5 4 15 16 17 19 21 23 24 26 28 27 29 30 30 31 31 27 26 28 28
22 20 16 9 4 1 9 7 14 11 7 6 10 4 14 4 8 13 12 10 13 14 7 4 3 3 6 4 5 8 4 6 4 4 12 14 19 21 24 25 27 28 31 33 34 34 34 34 34 34 32 30 29 28
14 15 14 7 3 6 6 11 10 10 7 5 5 14 8 5 10 10 10 13 13 6 2 3 6 6 3 4 4 5 4 6 13 15 17 19 20 22 24 28 30 31 33 33 33 33 33 31 31 31 32 28 26 24
16 13 7 4 9 14 26 13 8 8 8 9 5 13 14 13 15 11 12 17 7 4 5 5 6 8 6 5 3 6 16 17 18 20 22 21 22 24 26 27 27 28 29 29 29 29 28 28 28 25 23 22 22 20
12 9 5 1 5 7 6 7 7 6 4 5 15 16 15 20 26 22 18 19 23 17 9 7 7 5 4 7 11 16 16 16 17 18 22 23 23 24 24 25 26 27 27 26 26 26 25 24 23 20 17 16 20 18
15 13 6 4 9 5 5 6 6 7 4 5 11 21 26 22 22 33 30 22 19 10 9 6 5 11 10 12 13 17 16 16 17 19 18 20 20 22 22 22 21 20 21 21 22 20 19 20 19 16 14 14 14 12
12 14 14 17 17 11 7 4 5 5 7 6 10 15 14 25 35 34 28 31 26 8 7 13 18 20 19 19 17 18 22 21 20 18 16 18 19 19 20 19 19 19 19 18 18 18 18 18 14 13 13 14 11 11
16 15 10 11 8 6 7 11 7 7 6 9 12 10 7 13 17 21 28 22 14 21 20 19 18 18 23 24 23 23 22 22 21 20 19 17 18 19 19 17 17 19 18 17 15 14 15 13 12 11 9 10 10 13
11 6 6 5 6 6 4 6 5 5 3 3 4 5 5 5 8 9 7 13 14 17 17 18 20 20 22 22 23 22 20 19 19 18 17 17 16 15 15 15 15 14 14 13 11 10 11 10 12 10 8 8 8 8
5 5 6 5 7 5 4 5 5 4 5 4 3 4 4 5 6 7 5 8 12 12 14 12 12 15 16 17 18 17 15 14 15 16 13 11 12 12 11 12 11 11 10 8 8 8 8 9 8 9 10 10 9 9
4 8 5 7 5 4 4 3 4 4 5 5 4 5 4 5 3 4 3 5 9 11 12 12 14 13 14 14 14 14 14 11 11 12 11 11 8 7 7 10 11 10 9 7 8 8 8 8 9 9 9 10 10 9
6 10 6 4 4 4 3 3 3 4 3 4 5 4 4 3 4 5 3 8 9 8 10 10 9 10 12 10 8 8 8 8 7 10 10 8 7 6 5 4 4 8 10 8 7 7 8 8 9 9 7 8 10 8
5 6 7 6 6 8 7 10 10 6 6 4 3 2 2 3 4 3 7 8 7 7 8 10 10 10 9 8 8 8 8 7 7 6 6 7 7 6 5 4 5 6 7 7 6 6 7 7 7 8 8 7 8 9
7 7 6 8 11 14 5 5 5 5 3 5 3 4 3 4 3 4 6 6 7 7 7 8 9 9 9 8 6 5 6 8 10 11 11 12 14 11 9 8 8 7 7 7 7 7 7 7 7 7 8 9 10 10
7 6 8 8 9 11 11 6 4 5 6 4 2 3 4 5 7 11 10 9 8 7 7 6 7 7 6 5 4 5 5 4 4 4 4 3 4 11 11 8 7 8 7 6 7 9 9 9 9 10 10 10 10 10
5 5 7 9 5 6 8 8 11 9 10 11 13 19 18 12 13 9 9 8 7 6 5 5 6 3 3 2 4 6 5 5 4 2 1 2 6 9 8 8 8 8 8 8 8 9 9 11 10 9 11 12 11 13
5 7 8 8 6 10 12 14 17 17 17 18 13 14 13 9 7 8 7 6 5 5 5 4 4 3 1 1 2 1 6 9 7 5 5 6 6 6 8 10 10 10 9 9 10 10 10 12 11 10 10 13 14 15
7 6 7 5 6 7 4 4 5 9 9 10 9 7 7 6 4 2 5 7 6 4 7 4 2 6 3 4 4 3 5 6 7 7 7 7 8 9 11 12 11 10 10 11 11 11 10 12 13 13 14 14 16 18
15 14 13 9 6 5 3 4 4 4 5 4 4 4 4 4 4 4 8 11 9 8 6 8 8 4 3 4 6 7 7 7 7 8 8 8 10 10 10 11 11 11 12 12 12 12 12 13 14 16 17 18 18 19
Wind_Direction
307 306 297 302 304 301 278 268 252 246 251 212 213 198 201 197 196 197 204 200 194 177 189 188 196 207 225 213 213 219 199 225 230 182 206 223 233 226 233 191 163 164 257 214 226 221 240 217 230 239 236 204 260 269
311 309 303 315 317 315 289 267 258 242 215 186 186 190 191 189 190 195 194 191 187 201 123 156 193 196 237 230 228 201 204 188 176 240 204 209 262 190 175 200 141 206 177 266 313 310 301 212 257 274 265 278 278 241
324 313 324 330 328 355 359 324 195 180 178 179 182 182 184 183 180 186 189 183 175 182 157 184 202 199 229 228 229 229 201 184 180 201 230 231 210 190 199 212 177 208 201 196 259 284 305 248 272 244 255 268 246 261
342 344 358 12 27 64 54 81 128 142 155 163 167 169 172 170 173 176 161 175 178 115 137 165 175 196 226 205 197 215 210 197 210 253 214 195 199 217 209 231 192 192 173 224 211 241 293 284 292 290 298 293 268 258
18 38 49 50 59 81 97 118 123 132 143 150 152 153 160 163 160 168 169 178 150 143 156 158 182 212 198 206 199 224 232 246 179 284 245 195 202 290 269 226 237 216 226 242 259 261 317 313 319 315 319 327 293 244
75 73 74 79 79 107 111 122 125 126 134 142 145 148 153 162 150 138 119 174 170 172 56 166 192 175 215 207 206 225 224 245 188 189 218 239 217 254 238 232 241 248 257 262 249 269 263 274 302 303 297 304 315 249
75 112 99 93 100 99 113 123 124 131 139 144 144 150 144 139 141 102 122 172 174 176 234 157 140 189 213 214 202 208 230 246 248 247 258 210 233 222 262 261 297 307 302 309 320 280 247 270 285 301 294 271 260 270
72 88 96 110 117 113 115 115 119 133 134 145 138 127 131 140 118 78 121 156 150 179 68 142 135 255 187 193 203 197 202 235 232 251 254 220 271 170 239 3 8 338 299 293 320 314 307 280 282 288 292 284 242 252
92 106 112 105 119 125 131 128 123 128 134 139 137 136 126 111 93 118 133 149 157 161 150 153 251 30 336 192 176 157 181 205 247 210 256 240 188 82 13 358 2 3 360 340 337 324 324 312 304 297 303 289 251 196
97 100 96 116 129 132 135 131 126 130 125 123 119 93 82 95 116 117 98 105 151 193 129 156 120 159 351 294 130 132 154 210 210 208 176 208 86 52 13 356 351 352 356 351 358 353 346 333 315 301 323 315 263 173
99 101 110 109 114 122 127 131 132 133 131 118 76 57 122 128 106 92 129 155 163 206 184 183 203 248 253 235 122 115 149 203 200 187 188 190 81 4 354 352 356 356 354 12 27 24 15 356 343 80 92 128 149 156
107 109 113 117 116 110 104 86 54 46 81 100 112 117 129 104 84 121 149 188 222 210 152 181 210 186 200 217 137 163 168 68 194 158 104 82 26 359 355 357 0 10 9 11 25 29 26 52 77 111 111 119 129 138
116 117 115 117 120 116 103 89 99 113 110 104 93 93 92 162 211 175 160 196 107 358 7 351 295 188 201 40 97 137 139 196 29 66 70 38 3 1 4 11 22 34 43 51 63 75 88 92 95 94 102 107 124 126
125 125 129 131 132 121 88 85 72 106 60 49 46 59 11 35 39 31 352 343 345 333 333 320 237 66 15 91 39 77 59 58 83 67 69 17 10 16 29 40 51 56 67 73 77 82 87 90 92 95 98 107 110 108
119 134 138 128 130 125 30 15 56 89 62 51 24 45 45 345 35 359 346 337 357 339 346 325 36 22 22 56 15 69 58 65 31 62 38 21 28 41 50 61 67 70 75 80 86 89 91 93 94 95 98 102 105 112
118 119 125 140 153 52 2 32 57 69 62 57 41 21 351 7 11 1 354 356 352 351 3 7 28 52 47 40 48 15 61 41 56 51 38 43 55 63 68 72 75 80 81 83 85 89 91 91 93 97 99 100 102 104
132 134 132 148 37 40 10 55 41 48 48 49 72 31 17 38 2 359 347 334 343 333 52 41 46 16 54 60 61 26 42 78 71 66 62 62 68 71 81 86 84 83 81 82 86 86 87 90 91 88 84 84 87 88
137 128 139 99 84 50 46 49 70 60 49 11 31 15 16 24 11 23 20 23 43 60 40 52 29 34 30 46 47 94 90 86 79 71 69 73 80 85 84 83 86 87 89 89 88 87 82 77 75 75 76 74 74 73
140 138 164 126 42 61 57 49 59 91 87 82 58 48 42 40 38 39 39 43 58 74 80 57 45 37 50 29 55 89 90 91 91 81 81 84 81 79 80 84 87 85 81 76 78 80 84 86 85 81 78 86 88 81
154 157 184 134 93 73 74 68 64 78 75 133 100 76 58 47 52 51 48 45 54 58 55 49 43 37 54 51 51 62 99 102 101 92 78 72 75 81 79 78 74 74 81 86 84 77 74 71 65 66 74 80 70 75
139 117 101 97 70 68 83 78 81 108 121 74 95 66 68 50 46 44 48 48 52 47 74 81 77 70 76 76 75 90 87 87 81 83 86 77 68 68 68 68 72 73 70 66 65 70 68 59 58 53 45 41 56 82
116 107 72 47 65 67 61 41 80 95 74 104 70 59 68 48 49 49 47 50 62 55 65 76 77 77 73 71 72 75 80 82 81 80 80 79 71 68 65 61 59 63 61 55 53 57 51 58 60 37 59 68 25 18
98 74 59 54 81 65 54 33 58 32 73 81 57 51 48 54 50 56 70 42 58 63 73 78 79 78 78 74 74 72 72 75 74 71 72 73 71 69 69 67 64 60 54 48 47 45 35 49 28 41 38 40 57 34
75 57 42 49 58 87 76 44 53 60 52 52 57 68 43 47 74 70 69 59 55 56 58 73 80 79 72 69 68 64 64 71 77 75 66 68 69 66 65 63 59 63 57 47 35 32 40 20 43 28 19 17 38 37
77 18 31 60 50 83 75 63 36 61 53 55 65 55 44 38 63 73 78 90 62 62 66 71 77 80 82 79 71 64 64 69 74 73 74 68 70 73 53 17 22 42 52 54 48 22 28 25 23 32 23 4 25 35
74 26 34 40 45 63 62 79 65 63 68 66 55 58 32 52 66 70 71 92 83 70 54 68 83 82 73 75 79 67 64 68 69 70 58 58 72 75 51 54 34 14 22 34 35 36 10 18 11 23 21 11 357 17
66 60 46 40 80 100 97 73 65 56 52 50 56 50 65 70 75 78 91 76 103 97 92 88 87 90 89 81 75 73 78 79 67 59 37 24 27 35 33 29 16 9 4 9 12 15 10 4 1 4 352 358 348 353
58 49 68 53 63 47 74 55 45 47 59 6 67 43 53 40 76 69 118 130 126 123 118 123 125 121 116 104 95 76 41 24 16 22 8 358 358 7 13 8 0 352 354 351 353 352 349 349 345 343 334 342 342 346
67 87 82 41 60 52 35 35 65 49 343 329 81 82 93 72 110 121 126 124 113 102 95 89 85 83 83 80 71 56 33 27 69 17 37 22 335 321 342 351 353 344 344 352 337 333 336 336 334 332 334 335 338 331
61 46 90 48 53 58 38 68 87 75 62 87 101 108 107 103 98 119 116 111 125 127 130 134 117 120 116 40 333 347 2 7 6 359 61 275 288 319 335 332 337 333 334 332 330 331 334 325 333 342 325 323 319 308
77 69 71 70 81 103 117 109 88 82 84 89 101 107 120 127 128 128 143 161 162 120 105 121 126 112 79 174 201 309 320 336 350 348 339 329 330 336 321 328 328 323 325 325 321 322 318 319 323 318 313 305 309 314
50 75 115 107 119 154 174 162 90 90 95 81 83 99 126 121 104 163 162 128 122 164 185 164 247 268 276 306 316 316 305 316 331 342 341 337 332 324 326 327 325 325 321 320 321 321 318 312 314 311 312 305 301 302
94 87 98 105 126 129 132 131 103 102 85 80 72 62 52 51 97 218 176 165 158 204 205 208 236 267 295 315 326 333 331 333 331 329 327 328 329 328 328 331 332 326 324 324 322 321 319 315 311 309 311 312 312 309